Meath Environmental Platform

Observations

Time Sensor AQI SAQ Temp °C Hum % Pres Pa CO μg/m³ H₂S μg/m³ NO μg/m³ NO₂ μg/m³ O₃ μg/m³ SO₂ μg/m³ CO₂e PPM VOC PPM PM1 μg/m³ PM2.5 μg/m³ PM4 μg/m³ PM10 μg/m³ TPS µm
Thursday 13 August 2026
06:16 Trim Patrick St 2 20.7 77 38,460 0 0.11 1.75 11.02 28.9 4.5 6.29 9.65 10.61
06:15 Trim Patrick St 2 20.7 77 38,460 0 0.69 1.64 1.44 35.13 5.06 5.43 10.38 11.41
06:14 Trim Patrick St 2 20.7 77 38,460 0 3.11 1.81 20.19 20.32 3.27 5.43 10.35 11.39
06:13 Trim Market St 2 21.2 74 39,558 0 0 1.53 4.26 39.84 0 2.85 4.32 7.53
06:13 Trim Patrick St 2 20.7 77 38,460 0 0.66 1.9 9.03 29.74 4.12 5.43 8.23 9.06
06:12 Trim Patrick St 2 20.7 77 38,460 0 1.14 1.92 9.98 30.42 4.27 6.29 11.07 12.17
06:11 Trim Patrick St 2 20.7 77 38,460 0 1.45 1.87 11.35 29.12 4.09 5.43 8.94 9.83
06:10 Trim Market St 2 21.2 74 39,260 0 0 1.35 5.73 38.59 0 2.14 3.36 6.32
06:10 Trim Patrick St 2 20.7 77 38,460 0 0 1.92 9.03 30.15 3.81 6.29 9.65 10.61
06:09 Trim Patrick St 2 20.7 77 38,460 0 0 1.79 7.6 29.31 4.23 6.29 10.36 11.4
06:08 Trim Market St 2 21.2 74 38,868 0 0 1.24 8.35 36.89 0 2.85 2.88 5.11
06:08 Trim Patrick St 2 20.7 77 38,460 0 0.19 1.69 10.6 29.63 4.29 6.29 10.38 11.41
06:07 Trim Patrick St 2 20.7 77 38,460 0 0.13 1.57 0.21 34.97 4.77 5.43 8.96 9.85
06:06 Trim Patrick St 2 20.7 76 38,460 0 4.53 1.56 17.23 24.49 2.98 6.29 10.41 11.45
06:05 Trim Patrick St 2 20.7 76 38,460 0 0.45 1.55 9.82 33.22 4.12 5.43 8.28 9.11
06:04 Trim Patrick St 2 20.7 77 38,460 0 1.4 1.54 11.67 30.81 3.49 6.29 10.39 11.43
06:04 Trim Market St 2 21.2 74 38,464 0 0 1.36 2.17 40.7 0 2.85 4.32 6.93
06:03 Trim Patrick St 2 20.7 77 38,460 0 0.66 1.53 3.93 34.09 4.66 4.57 8.23 9.06
06:03 Trim Market St 2 21.2 74 38,376 0 0 1.56 3.63 38.9 0 4.28 5.27 8.13
06:02 Trim Patrick St 2 20.7 77 38,460 0 3.09 1.71 13.73 25.79 3.83 4.57 8.23 9.05